Location: *
(55.5817°S, 142.4781°W)
Time: 07:12:39
(UTC+00:00)

Cosmos 1633 Rocket - Pass Details

Date: 29 April 2025
Orbit: 601 x 617 km, 82.5° (Epoch: 24 May)

Event Time Altitude Azimuth Distance (km) Brightness Sun altitude
Exits shadow 13:57:46 55° 182° (S) 748 3.4 -24.6°
Drops below altitude 10° 14:01:15 10° 170° (S) 1,992 5.9 -24.2°
Sets 14:03:30 0° 168° (SSE) 2,904 6.8 -23.8°
